Regional Weather Roundup
Issued by NWS Wakefield, VA

Home | Current Version | Previous Version | Text Only | Print | Product List | Glossary Off
Versions: 1 2 3 4 5 6 7 8 9 10 11 12 13 14 15 16 17 18 19 20 21 22 23 24 25 26 27 28 29 30 31 32 33 34 35 36 37 38 39 40 41 42 43 44 45 46 47 48 49 50

000
ASUS41 KAKQ 040515
RWRAKQ

REGIONAL WEATHER ROUNDUP
NATIONAL WEATHER SERVICE WAKEFIELD VA
100 AM EDT MON MAY 04 2015

Note: "fair" indicates few or no clouds below 12,000 feet with no
significant weather and/or obstructions to visibility. * = Denotes
station may not report precipitation (e.g., rain,snow,etc.),
thunder or fog.

VAZ042-051-052>054-056-040600-
NORTHERN VIRGINIA

CITY           SKY/WX    TMP DP  RH WIND       PRES   REMARKS
WASH NATIONAL  CLEAR     65  49  56 S3        30.18R
DULLES         PTCLDY    56  46  69 S3        30.17R
FORT BELVOIR   CLEAR     52  49  90 NW1       30.17R
QUANTICO       CLEAR     57  50  77 NW6       30.19R
FREDERICKSBRG* CLEAR     56  51  84 CALM      30.18R
STAFFORD*      CLEAR     50  32  49 CALM      30.22R
WARRENTON      CLEAR     50  49  96 CALM      30.18R
CULPEPER*      NOT AVBL
MANASSAS*      CLEAR     52  52 100 S3        30.18R
LEESBURG*      CLEAR     57  50  77 SW3       30.18R
WINCHESTER     CLEAR     59  41  51 SW5       30.17R
FRONT ROYAL*   FAIR      59  43  55 S6        30.17R
LURAY*         FAIR      50  46  87 CALM      30.19R
$$

VAZ048-049-060>072-079>083-040600-
CENTRAL AND SOUTH CENTRAL VIRGINIA

CITY           SKY/WX    TMP DP  RH WIND       PRES   REMARKS
RICHMOND       PTCLDY    57  48  72 CALM      30.20R
CHESTERFIELD*  FAIR      54  37  54 CALM      30.21R
PETERSBURG*    CLEAR     50  49  95 CALM      30.21R
HANOVER        CLEAR     53  48  83 CALM      30.21R
TAPPAHANNOCK*  CLEAR     55  44  64 CALM      30.20R
QUINTON*       FAIR      53  49  87 SE3       30.20R
CHARLOTTSVILLE CLEAR     57  46  66 W3        30.19R
GORDONSVILLE*  FAIR      49  47  91 SW5       30.18S
ORANGE*        CLEAR     52  46  82 CALM      30.20S
LOUISA*        CLEAR     50  46  87 CALM      30.18S
BUMPASS*       FAIR      53  46  78 SW5       30.19R
FARMVILLE*     CLEAR     53  50  90 CALM      30.20R
CREWE*         FAIR      52  49  89 CALM      30.20S
FORT PICKETT*  FAIR      55  48  76 S8        30.21R
CHASE CITY*    FAIR      55  52  90 CALM      30.21S
CLARKSVILLE*   FAIR      50  50 100 S3        30.21R
SOUTH HILL*    CLEAR     51  49  92 CALM      30.27R
LAWRENCEVILLE* FAIR      57  49  73 CALM      30.21R
EMPORIA*       CLEAR     50  48  93 CALM      30.24R
$$

VAZ088>098-040600-
SOUTHEAST VIRGINIA

CITY           SKY/WX    TMP DP  RH WIND       PRES   REMARKS
NORFOLK        PTCLDY    60  49  66 SW8       30.21R
VIRGINIA BEACH PTCLDY    65  49  56 SW12      30.21R
NORFOLK NAVAL  PTCLDY    68  49  50 S8        30.22R
WEST POINT*    CLEAR     54  49  83 CALM      30.21S
SALUDA*        FAIR      58  48  69 SW5       30.19R
NEWPORT NEWS   CLEAR     58  49  72 CALM      30.21R
LANGLEY AFB    PTCLDY    61  50  66 S8        30.20R
FORT EUSTIS    CLEAR     60  54  80 S3        30.19R
WILLIAMSBURG*  CLEAR     59  55  88 SW3       30.21S
HR EXEC AP*    FAIR      61  50  67 SW7       30.23S
FRANKLIN*      CLEAR     59  49  70 S6        30.23R
WAKEFIELD      CLEAR     53  50  89 CALM      30.21R
$$

VAZ020-022-025-037-045-040600-
WEST CENTRAL AND SOUTHWEST VIRGINIA

CITY           SKY/WX    TMP DP  RH WIND       PRES   REMARKS
STAUNTON*      MOCLDY    49  44  83 CALM      30.23R
WAYNESBORO*    FAIR      54  42  62 CALM      30.21S
HOT SPRINGS VA CLEAR     59  40  49 S10G17    30.26S
LYNCHBURG      CLEAR     53  45  74 CALM      30.22R
DANVILLE       PTCLDY    52  48  86 CALM      30.21S
SOUTH BOSTON*  FAIR      52  48  89 CALM      30.21R
MARTINSVILLE   PTCLDY    51  51 100 CALM      30.25R
ROANOKE        MOCLDY    55  46  71 CALM      30.23S
BLACKSBURG     CLEAR     51  44  78 CALM      30.27R
DUBLIN*        CLEAR     55  47  76 CALM      30.25S
MARION*        PTCLDY    54  46  74 CALM      30.26S
HILLSVILLE*    CLEAR     60  46  59 S6        30.25S
RICHLANDS*     CLOUDY    64  28  26 CALM      30.23S
WISE*          CLEAR     59  34  38 SW3       30.23S
ABINGDON*      PTCLDY    55  44  65 CALM      30.22S
$$

MDZ021>025-VAZ099-100-040600-
SOUTHERN MARYLAND AND THE DELMARVA PENINSULA

CITY           SKY/WX    TMP DP  RH WIND       PRES   REMARKS
PATUXENT RIVER CLEAR     62  46  55 SW10      30.17R
BAY BRIDGE APT   N/A    N/A N/A N/A S3        30.17R
LEONARDTOWN    CLEAR     59  43  55 SW3       30.19S
DOVER          CLEAR     59  51  75 S5        30.14R
GEORGETOWN     CLEAR     55  49  80 S3        30.19R
EASTON         CLEAR     60  49  66 CALM      30.21R
CAMBRIDGE      CLEAR     57  50  77 SE3       30.18R
SALISBURY      CLEAR     51  47  86 CALM      30.19R
OCEAN CITY     CLEAR     51  49  92 CALM      30.19R
WALLOPS ISLAND CLEAR     60  47  61 SW8       30.19R
ACCOMACK*      CLEAR     59  52  77 S5        30.19R
$$

NCZ012>017-030>032-040600-
NORTH CENTRAL AND EASTERN NORTH CAROLINA

CITY           SKY/WX    TMP DP  RH WIND       PRES   REMARKS
ROANOKE RAPIDS FAIR      55  48  76 CALM      30.23R
RALEIGH        PTCLDY    62  48  60 SW9       30.24R
ELIZABETH CITY CLEAR     60  49  66 SW9       30.23R
AHOSKIE*       CLEAR     58  47  66 CALM      30.24R
EDENTON*       CLEAR     64  49  60 SW6       30.24R
CURRITUCK*     CLEAR     63  47  54 SW6       30.23S
KILL DEVIL HLS CLEAR     62  51  66 SW5       30.23S
MANTEO         CLEAR     62  51  68 SW6       30.25R
CAPE HATTERAS  MOCLDY    59  51  75 W7        30.25S
TARBORO*       FAIR      60  48  66 CALM      30.25R
GOLDSBORO      CLEAR     60  46  61 CALM      30.23R
WASHINGTON     CLEAR     60  48  64 SW3       30.26R
GREENVILLE     CLEAR     59  48  67 SW6       30.25S
NEW BERN       CLEAR     59  53  80 SW5       30.26S
WILMINGTON     CLEAR     56  53  90 CALM      30.25S
$$

VAZ048-040600-
ELSEWHERE

CITY           SKY/WX    TMP DP  RH WIND       PRES   REMARKS
HARRISBURG PA  PTCLDY    58  51  78 E6        30.14R
BALTIMORE      CLEAR     63  44  50 SW5       30.16R
ANNAPOLIS      CLEAR     59  50  72 CALM      30.16R
ANDREWS AFB    CLEAR     60  46  58 SW9       30.16R
PHILADELPHIA   CLEAR     62  48  60 SW3       30.17R
HENDERSON NC   CLEAR     58  47  65 S7        30.23R
GREENSBORO     MOCLDY    63  48  58 S5        30.21S
ROCKY MOUNT    CLEAR     59  47  64 S3        30.24R
$$

VAZ100-040600-
MARINE

STATION/POSITION TIME  TEMP    WIND        PRES    WAVE   SWELL
                       AIR SEA DIR/SP/G            HT/PER HT/PER
                 (UTC) (F)     (DEG/KT/KT) (MB)    (FT/S) (FT/S)
BRANDYWINE LGT   0412   61 53  210/ 11/ 12 1021.7R
CAPE MAY NJ      0412   58 60  190/  5/  7 1021.3R
LEWES DE         0412   61 57  210/  4/  6 1021.6R
15NM E FENWICK I 0450   55 52              1022.0R   4/10
OCEAN-CITY-INLET 0412   55 52  220/  2/  3 1021.6R
WACHAPREAGUE VA  0400   62 63  230/  4/  5 1022.1R
THOMAS POINT MD  0500   62 60  170/  4/  5 1022.1R
GOOSES REEF MD   0500   66 59                N/A     1
COVE POINT MD    0400   68     230/ 11/ 12 1021.8R
SOLOMONS ISLAND  0412      60                N/A
BISHOPS HEAD MD  0412   64 65  180/ 10/ 12 1021.3R
PINEY POINT MD   0400          240/  3/  4   N/A
CAMBRIDGE MD     0412   62 61  160/  3/  4 1021.4R
LEWISETTA VA     0412   64 64              1021.5R
RAPPAHANNOCK LGT 0400          170/ 10/ 10 1022.5R
YORK RVR RNG VA  0412   64     230/  9/ 10 1021.7R
YORKTOWN VA      0412   65 61  210/  8/  9 1022.0R
JAMESTOWN VA     0500   61 64   CALM  /  2 1021.8R
DOMINION TERM VA 0400   63     220/  5/  6 1022.5R
KIPTOPEKE VA     0400      64  160/  6/  7   N/A
CHES BAY BRIDGE  0412   66 58  180/  8/ 10 1022.2R
CAPE HENRY VA    0400   65     190/  9/ 12 1021.3R
CHESAPEAKE LGHT  0400   64     210/ 18/ 18 1022.9R
WILLOUBY STN VA  0400   69     210/ 12/ 14 1023.0R
S CRANEY ISL VA  0412          170/  8/  9 1022.8R
CAPE HENRY BUOY  0428      54                N/A     3/12   2/12
1ST LANDING BUOY 0500      59                N/A     1/ 4
CAPE CHARLES BUO 0426      56                N/A     2/11   2/11
OFFSHORE WE BUOY 0411      53                N/A     3/11   3/11
64NM E OF VA BCH 0450   62 62  240/ 12/ 16 1023.0R   5/10   5/10
DUCK PIER NC     0412   66 55  210/ 11/ 14 1022.6R
44056 DUCK FRF   0411      56                N/A     4/13   2/13
OREGON INLET NC  0412   64 63  210/  8/  8 1023.9R
HATTERAS NC      0412   65 62  240/  5/  8 1023.8R
DIAMOND SHLS NC  0450   62 60  290/  6/  8 1024.5R   4/ 9   3/ 9
CAPE LOOKOUT NC  0500   66     200/  5/  5 1024.3S
$$


USA.gov is the U.S. government's official web portal to all federal, state and local government web resources and services.